Flag for Colombia Weather past 2 weeks in Manizales, Colombia

Now
70 °F

Passing clouds.


Feels Like: 70 °F
Forecast: 56 / 80 °F
Wind: 10 mph from East

Location: Pereira / Matecana

Current Time: Aug 3, 2015 at 2:08:04 AM

Latest Report: Aug 3, 2015 at 12:00 AM


Visibility: N/A

Pressure: 29.99 "Hg (23.39 "Hg at 2139m altitude)

Humidity: 83%

Dew point: 64 °F

Location of ManizalesLocation

Historic Weather in Manizales — Graph

°F

Manizales temperature yesterday

Maximum temperature yesterday: 82 °F (at 3:00 PM)
Minimum temperature yesterday: 64 °F (at 5:00 AM)
Average temperature yesterday: 74 °F

Past Weeks' High & Low Weather Summary

 TemperatureHumidityPressure
High86 °F (Jul 24, 5:00 PM)100% (Jul 20, 5:00 AM)30.17 "Hg (Jul 20, 5:00 AM)
Low63 °F (Jul 24, 6:00 AM)40% (Jul 24, 5:00 PM)26.71 "Hg (Aug 2, 12:00 PM)
Average73 °F75%30.02 "Hg
* Reported Midnight between Jul 18 and Jul 19 — Midnight between Aug 2 and Aug 3, Manizales, Weather by CustomWeather, © 2015

Note: Actual official high and low records may vary slightly from our data, if they occured in-between our weather recording intervals... More about our weather records

Advertising

Manizales weather history for previous 24 hours

 ConditionsComfort  
Time TempWeatherWind HumidityBarometerVisibility
12:00 AM
Mon, Aug 3
70 °FPassing clouds.10 mph83%29.99 "HgN/A
11:00 PM
Sun, Aug 2
70 °FPassing clouds.10 mph83%30.00 "HgN/A
10:00 PM72 °FPassing clouds.12 mph78%30.00 "HgN/A
9:00 PM73 °FPassing clouds.10 mph78%29.97 "HgN/A
8:00 PM75 °FPassing clouds.3 mph74%29.96 "HgN/A
7:00 PM77 °FPassing clouds.6 mph69%29.94 "HgN/A
6:00 PM79 °FScattered clouds.2 mph65%29.92 "HgN/A
5:00 PM81 °FScattered clouds.2 mph62%29.91 "HgN/A
4:00 PM82 °FScattered clouds.2 mph58%29.91 "HgN/A
3:00 PM82 °FScattered clouds.2 mph55%29.93 "HgN/A
2:00 PMN/AScattered clouds.2 mphN/A29.96 "HgN/A
1:00 PM79 °FPartly sunny.5 mph61%29.98 "HgN/A
12:00 PMN/AScattered clouds.9 mphN/A26.71 "HgN/A
11:00 AM79 °FScattered clouds.5 mph65%30.03 "HgN/A
10:00 AM77 °FScattered clouds.6 mph65%30.06 "HgN/A
9:00 AM73 °FScattered clouds.2 mph74%30.05 "HgN/A
8:00 AM70 °FScattered clouds.2 mph73%30.04 "HgN/A
7:00 AM66 °FScattered clouds.5 mph83%30.03 "HgN/A
6:00 AM64 °FScattered clouds.9 mph83%30.01 "HgN/A
5:00 AM64 °FPassing clouds.7 mph88%30.00 "HgN/A
Weather by CustomWeather, © 2015

See weather overviewHow to use our weather pages